TimeMDT,TemperatureF,Dew PointF,Humidity,Sea Level PressureIn,VisibilityMPH,Wind Direction,Wind SpeedMPH,Gust SpeedMPH,PrecipitationIn,Events,Conditions,WindDirDegrees,DateUTC
12:56 AM,61.9,57.9,87,30.04,10.0,ENE,12.7,-,0.02,,Overcast,60,2013-07-17 06:56:00
1:56 AM,59.9,57.9,93,30.01,10.0,South,5.8,-,N/A,,Mostly Cloudy,170,2013-07-17 07:56:00
2:16 AM,60.8,59.0,94,30.28,10.0,West,4.6,-,0.00,Rain,Light Rain,260,2013-07-17 08:16:00
2:56 AM,59.9,59.0,97,30.03,10.0,ESE,4.6,-,0.00,,Mostly Cloudy,110,2013-07-17 08:56:00
3:56 AM,59.9,57.9,93,30.00,10.0,East,5.8,-,N/A,,Overcast,100,2013-07-17 09:56:00
4:56 AM,59.9,57.9,93,29.98,10.0,ESE,3.5,-,N/A,,Clear,110,2013-07-17 10:56:00
5:56 AM,57.9,56.8,96,30.01,10.0,Calm,Calm,-,N/A,,Mostly Cloudy,0,2013-07-17 11:56:00
6:56 AM,59.9,56.8,90,30.03,10.0,ENE,4.6,-,N/A,,Mostly Cloudy,60,2013-07-17 12:56:00
7:56 AM,63.0,57.9,84,30.04,10.0,West,3.5,-,N/A,,Mostly Cloudy,270,2013-07-17 13:56:00
8:56 AM,66.9,57.9,73,30.03,10.0,Calm,Calm,-,N/A,,Clear,0,2013-07-17 14:56:00
9:56 AM,72.0,54.9,55,30.02,10.0,Calm,Calm,-,N/A,,Clear,0,2013-07-17 15:56:00
10:56 AM,77.9,55.9,47,30.00,10.0,Variable,3.5,-,N/A,,Clear,0,2013-07-17 16:56:00
11:56 AM,81.0,52.0,36,30.01,10.0,WSW,9.2,-,N/A,,Partly Cloudy,240,2013-07-17 17:56:00
12:56 PM,82.9,50.0,32,30.00,10.0,South,8.1,-,N/A,,Partly Cloudy,190,2013-07-17 18:56:00
1:56 PM,84.9,52.0,32,29.99,10.0,SSW,11.5,20.7,N/A,,Partly Cloudy,200,2013-07-17 19:56:00
2:56 PM,86.0,52.0,31,29.98,10.0,Variable,5.8,-,N/A,,Partly Cloudy,0,2013-07-17 20:56:00
3:56 PM,86.9,52.0,30,29.95,10.0,West,9.2,-,N/A,,Clear,280,2013-07-17 21:56:00
4:56 PM,82.9,57.9,42,29.95,10.0,NW,5.8,-,N/A,,Partly Cloudy,310,2013-07-17 22:56:00
5:56 PM,84.9,54.9,36,29.94,10.0,WNW,5.8,-,N/A,,Clear,300,2013-07-17 23:56:00
6:56 PM,83.8,57.9,41,29.94,10.0,North,4.6,-,N/A,,Clear,350,2013-07-18 00:56:00
7:56 PM,82.9,54.0,37,29.95,10.0,NNE,5.8,-,N/A,,Clear,20,2013-07-18 01:56:00
8:56 PM,72.9,56.8,57,29.97,10.0,SSE,5.8,-,N/A,,Clear,150,2013-07-18 02:56:00
9:56 PM,70.0,50.9,51,29.98,10.0,ESE,6.9,-,N/A,,Mostly Cloudy,120,2013-07-18 03:56:00
10:56 PM,66.9,52.0,59,29.99,10.0,NE,6.9,-,N/A,,Scattered Clouds,40,2013-07-18 04:56:00
11:56 PM,65.8,50.9,58,29.98,10.0,ESE,8.1,-,N/A,,Overcast,120,2013-07-18 05:56:00